EW8138 Weather Reports


Display with metric or nautical units.
time (UTC)temp
F
wind
direction
speed
MPH
gust
MPH
rain 1hr
in
rain 24hr
in
rain mn
in
humidity
%
barometer
mb
20260510230034 62 35 0.0 2.0 0.00 0.05 0.00 39 1016.9
20260510224530 62 5 0.0 0.0 0.00 0.05 0.00 40 1017.1
20260510223021 62 17 0.0 6.0 0.00 0.05 0.00 43 1017.0
20260510221523 62 292 0.0 1.0 0.00 0.05 0.00 42 1017.0
20260510220020 63 5 0.0 1.0 0.00 0.05 0.00 44 1016.9
20260510214519 62 98 0.0 1.0 0.00 0.05 0.00 43 1016.5
20260510213021 61 348 0.0 5.0 0.00 0.05 0.00 44 1016.2
20260510211516 61 309 0.0 1.0 0.00 0.05 0.00 44 1016.1
20260510210019 63 302 0.0 6.0 0.00 0.05 0.00 42 1015.9
20260510204515 64 311 0.0 0.0 0.00 0.05 0.00 49 1015.9
20260510203014 62 320 0.0 0.0 0.00 0.05 0.00 46 1016.0
20260510201514 62 355 0.0 0.0 0.00 0.05 0.00 43 1016.2
20260510200013 63 282 0.0 1.0 0.00 0.05 0.00 44 1016.3
20260510194519 63 316 0.0 2.0 0.00 0.05 0.00 44 1016.4
20260510193008 62 300 0.0 1.0 0.00 0.05 0.00 44 1016.3
20260510191509 62 91 0.0 5.0 0.00 0.05 0.00 45 1016.3
20260510190005 61 322 0.0 0.0 0.00 0.05 0.00 46 1016.3
20260510184504 61 355 0.0 5.0 0.00 0.05 0.00 44 1016.2
20260510183003 62 355 1.0 11.0 0.00 0.05 0.00 49 1016.2
20260510181600 60 326 0.0 3.0 0.00 0.05 0.00 49 1016.1
20260510180108 60 59 0.0 12.0 0.00 0.05 0.00 51 1016.2
20260510174657 59 42 0.0 6.0 0.00 0.05 0.00 52 1015.7
20260510173055 59 360 0.0 1.0 0.00 0.05 0.00 54 1015.8
20260510171602 59 27 0.0 7.0 0.00 0.05 0.00 53 1016.0
20260510170049 58 355 0.0 3.0 0.00 0.05 0.00 57 1016.2
20260510164603 58 49 0.0 13.0 0.00 0.05 0.00 59 1016.3
20260510163108 58 46 0.0 2.0 0.00 0.05 0.00 58 1016.3
20260510161541 58 33 0.0 4.0 0.00 0.05 0.00 58 1016.1
20260510160038 57 24 0.0 11.0 0.00 0.05 0.00 61 1015.9
20260510154534 57 351 1.0 9.0 0.00 0.05 0.00 63 1015.8
20260510153038 57 74 0.0 10.0 0.00 0.05 0.00 63 1015.5
20260510151527 57 30 0.0 8.0 0.00 0.05 0.00 66 1015.3
20260510150030 55 360 0.0 4.0 0.00 0.05 0.00 66 1015.0
20260510144519 55 42 0.0 10.0 0.00 0.05 0.00 69 1015.0
20260510143029 55 11 0.0 15.0 0.00 0.05 0.00 67 1014.8
20260510141512 54 46 0.0 5.0 0.00 0.05 0.00 72 1014.3
20260510140009 53 46 0.0 5.0 0.00 0.05 0.00 72 1014.3
20260510134505 53 5 0.0 8.0 0.00 0.05 0.00 76 1014.1
20260510133004 52 341 0.0 4.0 0.00 0.05 0.00 76 1014.1
20260510131503 52 360 0.0 4.0 0.00 0.05 0.00 75 1014.0
20260510130059 52 22 0.0 2.0 0.00 0.05 0.00 75 1013.9
20260510124602 51 69 0.0 0.0 0.00 0.05 0.00 76 1013.6
20260510123054 51 360 0.0 0.0 0.00 0.05 0.00 76 1013.6
20260510121549 51 25 0.0 0.0 0.00 0.05 0.00 77 1013.2
20260510120046 50 34 0.0 0.0 0.00 0.05 0.00 78 1012.9
20260510114546 50 92 0.0 0.0 0.00 0.05 0.00 78 1012.6
20260510113040 50 355 0.0 0.0 0.00 0.05 0.00 78 1012.3
20260510111537 51 355 0.0 0.0 0.00 0.05 0.00 79 1011.9
20260510110040 50 355 0.0 0.0 0.00 0.05 0.00 75 1012.0
20260510104532 51 360 0.0 0.0 0.00 0.05 0.00 76 1011.3
20260510103031 51 360 0.0 0.0 0.00 0.05 0.00 74 1011.4
20260510101528 51 355 0.0 0.0 0.00 0.05 0.00 74 1011.0
20260510100036 51 9 0.0 1.0 0.00 0.05 0.00 75 1010.8
20260510094531 51 360 0.0 0.0 0.00 0.05 0.00 77 1010.3
20260510093021 51 34 0.0 0.0 0.00 0.05 0.00 78 1010.2
20260510091520 52 17 0.0 0.0 0.00 0.05 0.00 78 1010.1
20260510090017 52 14 0.0 1.0 0.00 0.05 0.00 79 1009.8
20260510084516 53 9 0.0 1.0 0.00 0.05 0.00 80 1009.7
20260510083019 53 21 0.0 0.0 0.00 0.05 0.00 80 1009.3
20260510081509 53 340 0.0 0.0 0.00 0.05 0.00 81 1009.4
20260510080020 54 319 0.0 0.0 0.00 0.06 0.00 81 1009.3
20260510074504 54 319 0.0 0.0 0.00 0.06 0.00 81 1009.1
20260510073002 55 319 0.0 0.0 0.00 0.06 0.00 80 1008.9
20260510071600 55 310 0.0 0.0 0.00 0.06 0.00 81 1008.9
20260510070057 56 310 0.0 0.0 0.00 0.06 0.00 82 1008.7
20260510064556 56 310 0.0 0.0 0.00 0.06 0.00 83 1008.5
20260510063054 57 309 0.0 0.0 0.00 0.06 0.00 84 1008.3
20260510061556 57 290 0.0 0.0 0.00 0.06 0.00 86 1008.5
20260510060053 57 300 0.0 0.0 0.00 0.06 0.00 88 1008.3
20260510054549 56 296 0.0 0.0 0.00 0.06 0.00 89 1008.0
20260510053047 56 300 0.0 0.0 0.00 0.06 0.00 90 1007.8
20260510051547 55 300 0.0 0.0 0.00 0.06 0.00 89 1007.5
20260510050047 56 300 0.0 0.0 0.00 0.06 0.00 86 1007.1
20260510044539 56 300 0.0 0.0 0.01 0.09 0.00 86 1006.9
20260510043040 57 300 0.0 0.0 0.04 0.09 0.00 85 1006.8
20260510041533 58 300 0.0 0.0 0.05 0.09 0.00 84 1006.8
20260510040028 59 300 0.0 0.0 0.05 0.23 0.09 85 1006.7
20260510034530 59 300 0.0 2.0 0.04 0.22 0.08 82 1006.9
20260510033028 60 280 2.0 20.0 0.01 0.19 0.05 81 1007.5
20260510031527 57 30 0.0 0.0 0.00 0.18 0.04 87 1006.2
20260510030026 57 31 0.0 0.0 0.00 0.22 0.04 86 1006.1
20260510024528 57 30 0.0 0.0 0.00 0.22 0.04 85 1006.3
20260510023026 58 30 0.0 0.0 0.00 0.22 0.04 82 1006.2
20260510021526 59 30 0.0 0.0 0.00 0.22 0.04 80 1006.1
20260510020025 59 30 0.0 0.0 0.00 0.22 0.04 78 1006.1
20260510014526 60 30 0.0 0.0 0.00 0.22 0.04 77 1005.8
20260510013026 60 30 0.0 0.0 0.00 0.22 0.04 75 1005.3
20260510011536 61 30 0.0 0.0 0.00 0.22 0.04 76 1005.1
20260510010023 61 30 0.0 0.0 0.00 0.23 0.04 74 1005.0
20260510004523 62 30 0.0 0.0 0.00 0.23 0.04 73 1004.9
20260510003025 62 30 0.0 0.0 0.00 0.23 0.04 72 1004.8
20260510001525 63 40 0.0 0.0 0.00 0.23 0.04 68 1004.7
20260510000027 67 17 0.0 5.0 0.00 0.23 0.04 59 1004.6
20260509234519 71 298 0.0 14.0 0.00 0.23 0.04 53 1004.3
20260509233019 71 265 1.0 10.0 0.00 0.23 0.04 53 1004.2
20260509231519 71 273 1.0 14.0 0.00 0.23 0.04 52 1003.9